Regional Weather Roundup
Issued by NWS

Home | Current Version | Previous Version | Graphics & Text | Print | Product List | Glossary On
Versions: 1 2 3 4 5 6 7 8 9 10 11 12 13 14 15 16 17 18 19 20 21 22 23 24 25 26 27
000
ASUS45 KBOU 161307
RWRCO

WEATHER ROUNDUP FOR COLORADO
NATIONAL WEATHER SERVICE DENVER/BOULDER CO
700 AM MDT MON OCT 16 2017

NOTE: "FAIR" INDICATES FEW OR NO CLOUDS BELOW 12000 FEET WITH NO
SIGNIFICANT WEATHER AND/OR OBSTRUCTIONS TO VISIBILITY.

COZ001>005-013-030-031-161400-
...NORTHWEST COLORADO...

CITY           SKY/WX    TMP DP  RH WIND       PRES   REMARKS
CRAIG          FAIR      21  16  81 CALM      30.47S
HAYDEN         FAIR      31  17  56 E12       30.48S WCI  22
MEEKER         FAIR      24  16  71 CALM      30.48S
RABBIT EARS PA FAIR      34   3  27 W9        30.57S WCI  26
STEAMBOAT SPGS FAIR      25  16  70 CALM      30.49S
WALDEN         FAIR      28  12  50 S5        30.50S WCI  23
$$

COZ006>008-011-161400-
...WEST CENTRAL VALLEYS...

CITY           SKY/WX    TMP DP  RH WIND       PRES   REMARKS
GRAND JUNCTION FAIR      30  15  53 E7        30.46S WCI  23
MONTROSE       FAIR      26  13  57 S7        30.52R WCI  18
EAGLE          FAIR      23  16  74 CALM      30.57S
RIFLE          FAIR      26  17  68 CALM      30.52R
DELTA          FAIR      28  12  50 CALM      30.50S
NUCLA          FAIR      30   5  34 SE7       30.53S WCI  23
$$

COZ017>023-064>068-161400-
...SOUTHWEST COLORADO...

CITY           SKY/WX    TMP DP  RH WIND       PRES   REMARKS
DURANGO        FAIR      21  12  68 NE3       30.52R
CORTEZ         FAIR      22  14  71 NE3       30.49S
PAGOSA SPRINGS FAIR      27  11  50 CALM      30.55F
TELLURIDE      NOT AVBL
WOLF CREEK PAS FAIR      36  -6  17 SW9       30.76S
$$

COZ009-010-012-014-032>034-037-058>063-161400-
...CENTRAL COLORADO...

CITY           SKY/WX    TMP DP  RH WIND       PRES   REMARKS
ASPEN          FAIR      26  10  50 VRB3      30.52S
BUENA VISTA    FAIR      23  13  64 W6        30.52F WCI  16
COPPER MTN     SNOW      36   3  25 W17       30.66S VSB 1/4
BERTHOUD PASS  FAIR      30  21  69 NW43G51   30.58F WCI  13
COTTONWOOD PAS FAIR      45 -13   8 N3        30.57S
GUNNISON       FAIR      14   9  80 CALM      30.62R
KREMMLING      FAIR      21  18  86 CALM      30.57R
LEADVILLE      FAIR      34  -7  17 VRB5      30.56S WCI  30
MONARCH PASS   FAIR      32  -2  23 SW23      30.77S WCI  19
SALIDA         NOT AVBL
SUNLIGHT       FAIR      34  -8  16 SW9       30.66F WCI  26
WILKERSON PASS FAIR      34  -6  18 SW12G17   30.64S WCI  25
$$

COZ069>075-161400-
...SAN LUIS VALLEY/SANGRE DE CRISTO MOUNTAINS...

CITY           SKY/WX    TMP DP  RH WIND       PRES   REMARKS
ALAMOSA        FAIR      17  12  80 CALM      30.55S
DEL NORTE      FAIR      33   7  33 W10       30.57R WCI  25
LA VETA PASS   FAIR      34  10  37 SW31      30.68S WCI  20
SAGUACHE       FAIR      28   7  40 NW12      30.56S WCI  18
$$

COZ035-036-038>040-161400-
...NORTHERN COLORADO FRONT RANGE...

CITY           SKY/WX    TMP DP  RH WIND       PRES   REMARKS
DENVER INTL AP MOCLDY    47  16  29 SW12      30.30F
DMNS CITY PARK   N/A     45  18  34 SE8       30.31F
AURORA         MOCLDY    46  18  32 S12       30.32F
FRONT RANGE AP FAIR      46  19  34 S18       30.32S
ERIE MUNI ARPT FAIR      32  29  88 SE5       30.36S WCI  27
BOULDER MUN AP FAIR      37  28  70 N3        30.30S
CENTENNIAL     MOCLDY    47  16  29 S10       30.33F
BROOMFIELD     MOCLDY    48  19  32 CALM      30.31F
FORT COLLINS   FAIR      35  27  72 N3        30.31S
LONGMONT       FAIR      33  27  80 CALM      30.32F
$$

COZ041-046-047-076>085-087-088-161400-
...PIKES PEAK/PALMER DIVIDE AND SOUTHERN FOOTHILLS...

CITY           SKY/WX    TMP DP  RH WIND       PRES   REMARKS
COLO. SPRINGS  MOCLDY    38  22  52 NE8       30.39F
A. F. ACADEMY  FAIR      32  20  59 N3        30.38F
SCHRIEVER AFB  FAIR      40  19  44 MISG      30.39F
CHEYENNE MTN   MOCLDY    50   6  17 CALM      30.35S
ELLICOTT       FAIR     N/A N/A N/A CALM      30.37F
FALCON         FAIR      38  14  37 CALM      30.41F
FORT CARSON    FAIR      35  22  58 NW9       30.37S HAZE    WCI  28
LIMON          FAIR      24  22  91 NW5       30.36S WCI  18
MONUMENT HILL  FAIR      46   9  21 SW12      30.41S
CANON CITY     CLEAR     46  19  34 W6        30.37S
WALSENBURG     FAIR      52  14  22 SW10      30.39S
TRINIDAD       FAIR      39  21  48 W14       30.40R
$$

COZ042>045-048>051-090-091-161400-
...NORTHEAST COLORADO...

CITY           SKY/WX    TMP DP  RH WIND       PRES   REMARKS
GREELEY ARPT   FAIR      28  26  92 NW5       30.31F WCI  23
AKRON          FAIR      42  24  49 SW13      30.28F
BURLINGTON     FAIR      35  27  72 SW8       30.31F WCI  29
WRAY           FAIR      32  28  86 W3        30.30F
YUMA           NOT AVBL
STERLING       FAIR      30  28  93 S5        30.28F WCI  25
HOLYOKE        FAIR      34  30  86 SW5       30.28F WCI  30
FORT MORGAN    FAIR      27  25  91 W8        30.30F WCI  19
$$

COZ086-089-092>099-161400-
...SOUTHEAST COLORADO...

CITY           SKY/WX    TMP DP  RH WIND       PRES   REMARKS
PUEBLO         FAIR      32  25  75 SW7       30.36F WCI  26
LA JUNTA       FAIR      37  28  70 W7        30.35F
LAMAR          FAIR      28  25  88 SW9       30.33F WCI  19
SPRINGFIELD      N/A     31  29  92 SW8       30.35F WCI  23
$$




USA.gov is the U.S. government's official web portal to all federal, state and local government web resources and services.